Location: Klinovec
(50.3970°N, 12.9600°E)
Time: 09:13:03
(UTC+01:00)

N. Korean satellite - Visible Passes

Search period start: 14 November 2019 00:00
Search period end: 24 November 2019 00:00
Orbit: 456 x 506 km, 97.2° (Epoch: 13 November)

Date Brightness Start Highest point End Pass type
(mag) Time Alt. Az. Time Alt. Az. Time Alt. Az.
14 Nov 6.8 06:07:31 10° NNE 06:11:16 77° ESE 06:14:58 10° S visible
14 Nov 10.1 18:22:46 10° WSW 18:24:35 13° W 18:26:26 10° WNW visible
15 Nov 8.2 05:42:17 10° NNE 05:45:50 39° E 05:49:19 10° SSE visible
15 Nov 9.2 17:55:59 10° SSW 17:58:58 24° W 18:02:01 10° NW visible
16 Nov 9.4 05:17:22 10° NE 05:20:18 21° E 05:23:12 10° SE visible
16 Nov 7.9 17:29:58 10° S 17:33:27 44° W 17:37:01 10° NNW visible
17 Nov 10.2 04:53:11 10° ENE 04:54:40 12° E 04:56:09 10° ESE visible
17 Nov 6.6 06:24:47 10° N 06:28:31 68° WNW 06:32:11 10° SSW visible
17 Nov 6.6 17:04:23 10° SSE 17:08:01 88° W 17:11:45 10° NNW visible
18 Nov 7.2 05:59:25 10° NNE 06:03:08 62° E 06:06:47 10° S visible
18 Nov 9.9 18:14:00 10° SW 18:16:21 16° W 18:18:43 10° NW visible
19 Nov 8.6 05:34:16 10° NNE 05:37:39 32° E 05:40:59 10° SSE visible
19 Nov 8.9 17:47:32 10° SSW 17:50:45 29° W 17:54:02 10° NNW visible
20 Nov 9.7 05:09:28 10° NE 05:12:04 18° E 05:14:38 10° SE visible
20 Nov 7.0 06:42:08 10° N 06:45:40 43° WNW 06:49:10 10° SW visible
20 Nov 7.4 17:21:39 10° S 17:25:16 55° W 17:28:56 10° NNW visible
21 Nov 6.5 06:16:37 10° NNE 06:20:21 83° WNW 06:24:01 10° SSW visible
21 Nov 6.6 16:56:11 10° SSE 16:59:51 75° ENE 17:03:35 10° N visible
21 Nov 10.3 18:32:50 10° W 18:33:45 11° W 18:34:40 10° WNW visible
22 Nov 7.6 05:51:18 10° NNE 05:54:55 50° E 05:58:29 10° S visible
22 Nov 9.6 18:05:21 10° SW 18:08:05 19° W 18:10:51 10° NW visible
23 Nov 8.9 05:26:13 10° NE 05:29:24 26° E 05:32:31 10° SSE visible
23 Nov 8.4 17:39:06 10° SSW 17:42:31 35° W 17:45:58 10° NNW visible
